星链-3310 (STARLINK-3310 )

导读 | 星芒AI

STARLINK-3310 是 SpaceX 星链计划中的一颗低轨通信卫星,属于第 11 批组网发射的星链卫星之一。该卫星部署在约 550 公里的轨道高度,旨在为全球用户提供高速互联网服务。作为星链星座的重要组成部分,STARLINK-3310 采用先进推进和通信技术,支持高带宽、低延迟的网络连接,助力偏远地区实现网络覆盖。其成功运行对提升全球通信基础设施具有重要意义。

基本信息
目录编号:
50835
目录名称:
STARLINK-3310
国际标识:
2022-001AJ
轨道中心:
EARTH
卫星名称:
星链-3310
卫星全名:
星链-3310 (STARLINK-3310 )
卫星状态:
在轨 (已飞行1444 天)
发射日期:
2022-01-06 UTC
国别 :
美国 (US)
星等 :
--
轨道信息
数据来源 国际轨道数据 AOE轨道数据
星历时间 2025-12-20T13:13:05+0800
7小时前
查看轨道信息
2025-12-16T12:00:00+0800
4天前
查看轨道信息
半长轴 6917.892km 6917.89km
偏心率 0.0001507 0.0001597
轨道倾角 53.216° 53.214°
近地点辐角 93.237° 95.625°
升交点赤经 175.998° 194.183°
平近点角 266.879° 209.561°
近地点 538.712km 538.65km
远地点 540.798km 540.86km
周期 95.438分钟 95.438分钟
每日圈数 15.088365 15.08837
详细信息
固有亮度:
5
最大亮度:
2.5
卫星平台:
Starlink v1.5
覆盖范围:
全球
运营商:
太空探索技术公司
运营商所在国:
美国
制造商(研发单位):
太空探索技术公司
制造商所在国:
美国
使用方式:
暂无
卫星简介
星链(Starlink)计划是由太空探索技术公司(SpaceX)提出的一个巨型低轨卫星互联网星座项目,计划在2019年至2024年间在太空搭建由约1.2万颗卫星组成的“星链”网络,其中1584颗将部署在地球上空550千米处的近地轨道,并从2020年开始工作。该卫星仍在工作。
2D轨道图
3D轨道图
轨道高度分析图
轨道倾角分析图
轨道综合分析图
查看轨道综合分析图